[[{"header":{"parameterUnit":"m.s-1","parameterCategory":1,"la1":30.2991,"la2":30.254,"lo1":-89.0895,"lo2":-89.0444,"dy":0.0017,"dx":0.0017,"nx":28,"ny":28,"refTime":"2024-03-07T03:00:00:Z","depth":0,"parameterNumber":2,"parameterNumberName":"U-component_of_WINDS"},"data":[0,0,0,0,0,0,0,0,0,0,0,0,0,0,0,0,0,0,0,0,0,0,0,0,0,0,0,0,0,0,0,0,0,0,0,0,0,0,0,0,0,0,0,0,0,0,0,0,0,0,0,0,0,0,0,0,0,0,-2.337,-2.337,0,-2.3307,-2.3306,-2.3305,-2.3165,-2.3163,-2.316,-2.3157,-2.3094,-2.3095,-2.3096,0,0,0,0,0,0,0,0,0,0,0,0,0,-2.3375,-2.3376,-2.3371,-2.337,-2.3369,-2.3307,-2.3306,-2.3305,-2.3166,-2.3162,-2.3159,-2.3156,-2.3094,-2.3095,-2.3096,0,0,0,0,0,0,0,0,0,0,0,0,0,-2.3349,-2.3376,-2.3371,-2.3292,-2.3284,-2.3307,-2.3306,-2.3305,-2.3167,-2.3162,-2.3158,-2.3154,-2.3093,-2.3095,-2.3096,-2.3192,0,0,-2.3101,-2.3102,0,0,0,0,0,0,0,0,-2.335,-2.3349,-2.3304,-2.3297,-2.3289,-2.324,-2.3284,-2.3267,-2.3168,-2.3211,-2.3157,-2.3152,-2.3146,-2.3143,-2.3141,-2.3189,-2.3186,-2.3101,-2.3102,-2.3103,-2.3103,0,0,0,0,0,0,0,-2.3352,-2.3351,-2.3345,-2.3304,-2.3294,-2.3261,-2.3252,-2.3281,-2.3204,-2.3207,-2.3197,-2.3191,-2.3141,-2.314,-2.3138,-2.3185,-2.3101,-2.3102,-2.3103,-2.3104,-2.3311,-2.3315,0,0,0,0,0,0,-2.3365,-2.3353,-2.3347,-2.3343,-2.3309,-2.3264,-2.3255,-2.326,-2.3203,-2.319,-2.3195,-2.3185,-2.3139,-2.3137,-2.3135,-2.3245,-2.3103,-2.3104,-2.3105,-2.3306,-2.3312,-2.3317,0,0,0,0,0,0,-2.3366,-2.3366,-2.335,-2.3345,-2.3341,-2.3269,-2.3276,-2.3261,-2.3259,-2.3194,-2.318,-2.3207,-2.3136,-2.3133,-2.3179,-2.324,-2.3105,-2.3106,-2.3301,-2.3308,-2.3314,-2.3463,0,0,0,0,0,0,-2.3366,-2.3367,-2.3401,-2.3347,-2.3342,-2.3394,-2.3279,-2.3263,-2.3262,-2.3248,-2.3201,-2.319,-2.3132,-2.3178,-2.3181,-2.324,-2.3107,-2.3295,-2.3304,-2.3312,-2.3453,-2.3474,-2.3493,0,0,0,0,0,-2.3367,-2.3446,-2.3404,-2.3404,-2.3383,-2.3398,-2.3394,-2.3326,-2.3267,-2.3302,-2.326,-2.3191,-2.3233,-2.3183,-2.3186,-2.3247,-2.3291,-2.3301,-2.3311,-2.3444,-2.347,-2.3493,0,0,0,0,0,0,-2.3509,-2.3437,-2.339,-2.3453,-2.3433,-2.3374,-2.3415,-2.3356,-2.3352,-2.334,-2.3256,-2.3247,-2.3304,-2.3279,-2.3225,-2.3337,-2.3251,-2.3262,-2.3351,-2.3376,-2.3396,-2.3401,-2.3108,0,0,0,0,0,-2.3548,-2.3565,-2.3501,-2.3563,-2.3556,-2.3488,-2.3492,-2.3441,-2.3417,-2.3407,-2.3369,-2.3349,-2.3358,-2.3365,-2.3369,-2.3448,-2.3437,-2.3492,-2.3512,-2.3529,-2.354,-2.3582,-2.3606,-2.335,-2.335,-2.335,0,0,-2.3628,-2.3591,-2.3606,-2.3591,-2.3569,-2.359,-2.3481,-2.3508,-2.3523,-2.3411,-2.3452,-2.3424,-2.3396,-2.346,-2.3486,-2.3441,-2.3608,-2.3542,-2.3556,-2.3558,-2.3596,-2.362,-2.3641,-2.3357,-2.3356,-2.3355,0,0,-2.3784,-2.3758,-2.3807,-2.3788,-2.3756,-2.3711,-2.3724,-2.3674,-2.3651,-2.3691,-2.3609,-2.3626,-2.3643,-2.3627,-2.3621,-2.3775,-2.3712,-2.3779,-2.3885,-2.3928,-2.3948,-2.3965,-2.4022,-2.4043,-2.379,-2.3791,-2.3791,0,-2.3888,-2.3915,-2.384,-2.3873,-2.3869,-2.377,-2.3821,-2.3806,-2.3778,-2.3779,-2.3729,-2.3749,-2.3723,-2.3782,-2.3821,-2.3818,-2.3831,-2.3784,-2.3951,-2.3968,-2.3983,-2.4036,-2.4058,-2.3799,-2.3798,-2.3797,-2.3796,0,-2.4045,-2.4066,-2.411,-2.4086,-2.4087,-2.4129,-2.4062,-2.4073,-2.4023,-2.3984,-2.4027,-2.3993,-2.399,-2.4,-2.3951,-2.4054,-2.4027,-2.3966,-2.3878,-2.4017,-2.4066,-2.4085,-2.3811,-2.3808,-2.3806,-2.3803,0,0,-2.4288,-2.4223,-2.4241,-2.423,-2.4189,-2.4204,-2.4243,-2.4239,-2.4251,-2.4236,-2.4267,-2.4285,-2.4228,-2.4222,-2.417,-2.4208,-2.4335,-2.4141,-2.4139,-2.418,-2.4448,-2.4496,-2.452,-2.4293,-2.4296,-2.4299,-2.4451,0,-2.4436,-2.4496,-2.4431,-2.4506,-2.4525,-2.4432,-2.4466,-2.4446,-2.4411,-2.4424,-2.4385,-2.44,-2.4323,-2.4319,-2.4351,-2.4312,-2.4388,-2.43,-2.4322,-2.4324,-2.4333,-2.4545,-2.4595,-2.474,-2.4469,-2.4472,-2.4475,0,-2.4615,-2.461,-2.4686,-2.4643,-2.4649,-2.468,-2.4673,-2.4685,-2.4662,-2.4634,-2.4629,-2.4567,-2.4604,-2.4518,-2.4568,-2.4511,-2.4516,-2.4499,-2.4503,-2.4502,-2.4408,-2.4552,-2.4784,-2.4806,-2.4504,-2.4501,-2.4499,0,-2.4787,-2.4798,-2.4846,-2.4839,-2.4789,-2.4814,-2.4794,-2.4766,-2.4769,-2.4764,-2.4765,-2.4764,-2.4764,-2.4766,-2.4707,-2.465,-2.4766,-2.4674,-2.4745,-2.4747,-2.4773,-2.4773,-2.5011,-2.4776,-2.4776,-2.4776,-2.4775,0,-2.4959,-2.501,-2.4922,-2.4952,-2.5007,-2.4933,-2.499,-2.4961,-2.4938,-2.4962,-2.4881,-2.4906,-2.4826,-2.4842,-2.4796,-2.4846,-2.4846,-2.4826,-2.4814,-2.4834,-2.4837,-2.4836,-2.4825,-2.4781,-2.478,-2.4779,-2.4778,0,-2.5159,-2.5102,-2.5149,-2.5098,-2.5087,-2.5131,-2.5088,-2.5114,-2.5075,-2.5106,-2.511,-2.5049,-2.5064,-2.5005,-2.5011,-2.498,-2.5055,-2.5025,-2.5063,-2.5054,-2.5128,-2.5123,-2.5375,-2.5405,-2.5151,-2.5154,-2.5156,0,-2.5273,-2.531,-2.5265,-2.5275,-2.5259,-2.5276,-2.5279,-2.5209,-2.5216,-2.5193,-2.5223,-2.5232,-2.5235,-2.5265,-2.5222,-2.5226,-2.5197,-2.5285,-2.5197,-2.5217,-2.52,-2.5198,-2.5203,-2.5303,-2.5306,-2.5309,-2.5311,0,-2.5481,-2.5452,-2.5459,-2.5458,-2.5464,-2.5459,-2.5449,-2.5462,-2.5387,-2.5399,-2.5414,-2.5416,-2.5423,-2.5434,-2.543,-2.5411,-2.535,-2.5339,-2.5356,-2.5377,-2.5398,-2.5389,-2.5114,-2.5334,-2.5331,-2.533,-2.5329,-2.5328,-2.5642,-2.5671,-2.5645,-2.5656,-2.5642,-2.5635,-2.5658,-2.5622,-2.5633,-2.5633,-2.5591,-2.5615,-2.5593,-2.5581,-2.5569,-2.5588,-2.5547,-2.5571,-2.5577,-2.5584,-2.5598,-2.5396,-2.5587,-2.5586,-2.5586,-2.5585,-2.5584,0,-2.5847,-2.5826,-2.5837,-2.5826,-2.5836,-2.5777,-2.5764,-2.5777,-2.5799,-2.5783,-2.5788,-2.5807,-2.5818,-2.5777,-2.5782,-2.5806,-2.5778,-2.5809,-2.5807,-2.5804,-2.5633,-2.5619,-2.5832,-2.5832,-2.5832,-2.5832,-2.5832,-2.5832,-2.5955,-2.6002,-2.5971,-2.6012,-2.599,-2.6013,-2.6011,-2.6005,-2.5992,-2.6017,-2.6025,-2.5998,-2.5973,-2.5977,-2.5985,-2.5972,-2.5979,-2.6021,-2.5999,-2.584,-2.5816,-2.5793,-2.5779,-2.6022,-2.6023,-2.6168,-2.617,-2.6171]},{"header":{"parameterUnit":"m.s-1","parameterCategory":1,"la1":30.2991,"la2":30.254,"lo1":-89.0895,"lo2":-89.0444,"dy":0.0017,"dx":0.0017,"nx":28,"ny":28,"refTime":"2024-03-07T03:00:00:Z","depth":0,"parameterNumber":3,"parameterNumberName":"V-component_of_WINDS"},"data":[0,0,0,0,0,0,0,0,0,0,0,0,0,0,0,0,0,0,0,0,0,0,0,0,0,0,0,0,0,0,0,0,0,0,0,0,0,0,0,0,0,0,0,0,0,0,0,0,0,0,0,0,0,0,0,0,0,0,0.4991,0.499,0,0.4934,0.4933,0.4933,0.488,0.4879,0.4878,0.4878,0.4817,0.4816,0.4815,0,0,0,0,0,0,0,0,0,0,0,0,0,0.5051,0.5051,0.4991,0.499,0.4989,0.4934,0.4933,0.4932,0.488,0.4879,0.4878,0.4877,0.4818,0.4817,0.4815,0,0,0,0,0,0,0,0,0,0,0,0,0,0.5013,0.505,0.4991,0.4956,0.4953,0.4934,0.4933,0.4932,0.488,0.4879,0.4878,0.4877,0.4818,0.4817,0.4815,0.4825,0,0,0.4811,0.481,0,0,0,0,0,0,0,0,0.5015,0.5011,0.4962,0.4959,0.4955,0.4913,0.4932,0.4896,0.488,0.4907,0.4878,0.4877,0.485,0.4846,0.4837,0.4823,0.482,0.481,0.481,0.4809,0.4809,0,0,0,0,0,0,0,0.5018,0.5013,0.4968,0.4961,0.4957,0.4943,0.4937,0.4925,0.4885,0.4905,0.4901,0.4895,0.4848,0.4839,0.4835,0.4819,0.4811,0.4809,0.4808,0.4808,0.481,0.4811,0,0,0,0,0,0,0.5026,0.5015,0.497,0.4966,0.4983,0.4943,0.4935,0.4927,0.4885,0.4877,0.4896,0.4893,0.4842,0.4837,0.4833,0.4842,0.4809,0.4808,0.4807,0.4809,0.481,0.4811,0,0,0,0,0,0,0.5028,0.5023,0.4972,0.499,0.4982,0.4943,0.4934,0.4927,0.4918,0.4878,0.487,0.4895,0.4841,0.4835,0.4828,0.4839,0.4807,0.4806,0.4808,0.4809,0.4811,0.486,0,0,0,0,0,0,0.503,0.5023,0.5027,0.499,0.4982,0.4969,0.4935,0.4926,0.4915,0.4911,0.4875,0.4868,0.484,0.483,0.4826,0.4836,0.4804,0.4807,0.4808,0.481,0.4857,0.4862,0.4867,0,0,0,0,0,0.5032,0.5043,0.5028,0.5023,0.4986,0.4969,0.4964,0.4933,0.4917,0.492,0.4894,0.4869,0.4839,0.483,0.4825,0.4835,0.4806,0.4808,0.481,0.4854,0.4861,0.4867,0,0,0,0,0,0,0.5081,0.5037,0.502,0.502,0.4999,0.4961,0.4964,0.4941,0.4924,0.492,0.4881,0.4873,0.487,0.4851,0.4843,0.4842,0.4819,0.482,0.4854,0.486,0.4866,0.4869,0.4803,0,0,0,0,0,0.5092,0.5083,0.5045,0.5049,0.5039,0.5004,0.4995,0.4973,0.4949,0.494,0.4914,0.4891,0.4876,0.4868,0.4852,0.4854,0.4845,0.4858,0.4864,0.4868,0.4869,0.4869,0.4874,0.4818,0.4818,0.4818,0,0,0.5115,0.509,0.5086,0.5058,0.5039,0.503,0.4996,0.4988,0.4981,0.4938,0.4929,0.491,0.4882,0.488,0.4877,0.4864,0.4883,0.4871,0.4875,0.4874,0.4872,0.4877,0.4882,0.482,0.4819,0.4819,0,0,0.515,0.5131,0.5131,0.5113,0.5086,0.5062,0.5062,0.5028,0.5013,0.5004,0.4972,0.4962,0.4938,0.492,0.4907,0.4937,0.4912,0.4933,0.496,0.496,0.4964,0.4968,0.4978,0.4982,0.4934,0.4935,0.4935,0,0.5181,0.5167,0.5134,0.5128,0.5116,0.5079,0.5078,0.5062,0.5031,0.5023,0.5009,0.4978,0.4957,0.4949,0.4957,0.4948,0.4946,0.4936,0.4967,0.497,0.4973,0.4982,0.4985,0.4937,0.4937,0.4937,0.4936,0,0.5206,0.5196,0.52,0.5171,0.516,0.5157,0.5123,0.5116,0.5094,0.5072,0.5063,0.5037,0.5015,0.5012,0.499,0.5001,0.4994,0.4974,0.4949,0.4981,0.4989,0.4992,0.4941,0.494,0.4939,0.4939,0,0,0.527,0.5224,0.5225,0.5212,0.5179,0.5171,0.5166,0.5145,0.5139,0.5119,0.5113,0.5094,0.5076,0.5062,0.5038,0.5038,0.5062,0.5018,0.5017,0.5026,0.5071,0.5086,0.509,0.5046,0.5047,0.5047,0.5073,0,0.5299,0.5289,0.5259,0.5257,0.5248,0.5213,0.5208,0.5187,0.5166,0.5155,0.5131,0.5118,0.5095,0.5086,0.5085,0.506,0.5071,0.5058,0.504,0.5039,0.5047,0.5094,0.5109,0.5135,0.5076,0.5077,0.5077,0,0.5332,0.5314,0.5312,0.528,0.5275,0.5271,0.525,0.524,0.5215,0.52,0.5185,0.5159,0.5151,0.5129,0.5117,0.5109,0.51,0.5087,0.5087,0.5083,0.5059,0.5091,0.5142,0.5146,0.5082,0.5081,0.5081,0,0.5377,0.5354,0.5349,0.5339,0.5301,0.5299,0.5284,0.5258,0.5248,0.5229,0.5222,0.5202,0.5192,0.5177,0.5146,0.5133,0.5138,0.5113,0.5124,0.5125,0.5125,0.5125,0.5175,0.5122,0.5121,0.5121,0.5121,0,0.5413,0.5412,0.5369,0.5366,0.5365,0.5331,0.533,0.5311,0.5289,0.5281,0.5249,0.5242,0.5203,0.5191,0.5167,0.516,0.5156,0.5143,0.5136,0.5145,0.5146,0.5137,0.5134,0.5122,0.5122,0.5122,0.5122,0,0.5463,0.5434,0.5427,0.5392,0.5383,0.5384,0.5354,0.5349,0.5327,0.5317,0.5313,0.5278,0.5262,0.5231,0.5207,0.5191,0.5189,0.5178,0.5198,0.5193,0.5205,0.5204,0.525,0.5254,0.52,0.52,0.5201,0,0.5487,0.5486,0.5451,0.5444,0.543,0.5419,0.5408,0.5375,0.5365,0.5338,0.5336,0.5319,0.5303,0.528,0.5251,0.5233,0.522,0.5238,0.5217,0.5226,0.5219,0.5219,0.5219,0.5242,0.5243,0.5244,0.5244,0,0.5531,0.5517,0.5504,0.5486,0.5474,0.5458,0.544,0.5436,0.5398,0.5389,0.5373,0.5361,0.5337,0.532,0.5297,0.5279,0.5255,0.5251,0.5252,0.526,0.5271,0.5265,0.5209,0.525,0.5249,0.5249,0.5248,0.5248,0.5568,0.5566,0.5541,0.5527,0.551,0.5495,0.5489,0.5466,0.5453,0.5431,0.5412,0.5398,0.5374,0.5341,0.5325,0.5313,0.5301,0.5303,0.5303,0.5304,0.5307,0.5275,0.5309,0.5309,0.5308,0.5308,0.5308,0,0.561,0.5593,0.5581,0.5557,0.5546,0.5526,0.5505,0.5497,0.5485,0.5465,0.545,0.5432,0.5415,0.5386,0.5366,0.5362,0.5351,0.5358,0.5357,0.5354,0.532,0.532,0.5368,0.5368,0.5368,0.5368,0.5368,0.5368,0.5631,0.5625,0.5609,0.5594,0.5577,0.5564,0.5553,0.5538,0.5522,0.5503,0.5489,0.5471,0.5447,0.5425,0.5409,0.54,0.5394,0.5405,0.5393,0.5362,0.5356,0.5351,0.5351,0.5404,0.5404,0.5428,0.5428,0.5429]}]]